Location: Unspecified
(39.0631°N, 0.0000°E)
Time: 02:20:29
(UTC+00:00)

SL-16 DEB - Visible Passes

Search period start: 04 April 2026 00:00
Search period end: 14 April 2026 00:00
Orbit: 818 x 949 km, 70.8° (Epoch: 28 March)

Date Brightness Start Highest point End Pass type
(mag) Time Alt. Az. Time Alt. Az. Time Alt. Az.
4 Apr ? 00:49:49 10° N 00:51:00 16° N 00:51:00 16° N visible
5 Apr ? 00:47:15 10° N 00:48:23 16° N 00:48:23 16° N visible
6 Apr ? 00:44:43 10° N 00:45:48 16° N 00:45:48 16° N visible
7 Apr ? 00:42:13 10° NNW 00:43:15 16° N 00:43:15 16° N visible
8 Apr ? 00:39:44 10° NNW 00:40:44 15° NNW 00:40:44 15° NNW visible
8 Apr ? 22:54:41 10° NNE 22:55:34 12° NNE 22:55:34 12° NNE visible
9 Apr ? 00:37:17 10° NNW 00:38:14 15° NNW 00:38:14 15° NNW visible
9 Apr ? 22:51:41 10° NNE 22:53:05 13° NNE 22:53:05 13° NNE visible
10 Apr ? 00:34:51 10° NNW 00:35:46 15° NNW 00:35:46 15° NNW visible
10 Apr ? 22:48:50 10° N 22:50:38 15° NNE 22:50:38 15° NNE visible
11 Apr ? 00:32:27 10° NNW 00:33:19 15° NNW 00:33:19 15° NNW visible
11 Apr ? 22:46:06 10° N 22:48:12 17° NNE 22:48:12 17° NNE visible
12 Apr ? 00:30:04 10° NNW 00:30:54 14° NNW 00:30:54 14° NNW visible
12 Apr ? 22:43:25 10° N 22:45:48 20° NNE 22:45:48 20° NNE visible
13 Apr ? 00:27:43 10° NW 00:28:29 14° NW 00:28:29 14° NW visible
13 Apr ? 22:40:47 10° N 22:43:24 22° NNE 22:43:24 22° NNE visible
